Location: Cormont
(50.5693°N, 1.7416°E)
Time: 19:44:28
(UTC+00:00)

Cosmos 1908 - Pass Details

Date: 21 October 2019
Orbit: 511 x 532 km, 82.5° (Epoch: 17 November)

Event Time Altitude Azimuth Distance (km) Brightness Sun altitude
Rises 18:32:19 0° 204° (SSW) 2,661 7.1 -17.0°
Reaches altitude 10° 18:34:32 10° 210° (SSW) 1,774 6.2 -17.3°
Maximum altitude 18:38:17 46° 285° (WNW) 724 4.4 -17.9°
Drops below altitude 10° 18:42:03 10° 359° (N) 1,778 6.0 -18.5°
Sets 18:44:16 0° 6° (N) 2,668 6.8 -18.9°
